Home > Weather > Ottawa > Past weeks

Flag for Canada Weather for the Past 2 Weeks in Ottawa, Ontario, Canada

Now
0 °F

Light snow. Overcast.


Feels Like: -14 °F
Forecast: -6 / 21 °F
Wind: 7 mph from South

Location: Ottawa Int'L. Ont.

Current Time: Feb 12, 2016 at 10:20:53 AM

Latest Report: Feb 12, 2016 at 9:00 AM


Visibility: 6 mi

Pressure: 30.03 "Hg

Humidity: 78%

Dew point: -6 °F

Location of OttawaLocation

Historic Weather in Ottawa — Graph

°F

Ottawa Temperature Yesterday

Maximum temperature yesterday: 10 °F (at 12:00 AM)
Minimum temperature yesterday: -4 °F (at 9:00 PM)
Average temperature yesterday: 2 °F

High & Low Weather Summary for the Past Weeks

 TemperatureHumidityPressure
High46 °F (Feb 3, 9:00 PM)100% (Jan 29, 7:00 AM)30.43 "Hg (Jan 29, 7:00 AM)
Low-8 °F (Feb 12, 3:00 AM)42% (Feb 8, 2:00 PM)29.38 "Hg (Feb 1, 3:00 AM)
Average23 °F75%29.89 "Hg
* Reported Jan 28 9:00 AM — Feb 12 9:00 AM, Ottawa, Weather by CustomWeather, © 2016

Note: Actual official high and low records may vary slightly from our data, if they occured in-between our weather recording intervals... More about our weather records

Advertising

Ottawa Weather History for the Previous 24 Hours

 ConditionsComfort  
Time TempWeatherWind HumidityBarometerVisibility
9:00 AM
Fri, Feb 12
0 °FLight snow. Overcast.7 mph78%30.03 "Hg6 mi
8:47 AM-2 °FLight snow. Overcast.6 mph77%30.04 "Hg8 mi
8:00 AM-4 °FScattered clouds.3 mph71%30.06 "Hg15 mi
7:00 AM-6 °FPassing clouds.6 mph77%30.07 "Hg15 mi
6:00 AM-6 °FPassing clouds.6 mph70%30.09 "Hg15 mi
5:00 AM-6 °FLight snow. Passing clouds.6 mph77%30.11 "Hg15 mi
4:00 AM-6 °FPartly cloudy.8 mph70%30.12 "Hg15 mi
3:00 AM-8 °FClear.6 mph70%30.13 "Hg15 mi
2:00 AM-6 °FClear.3 mph77%30.15 "Hg15 mi
1:00 AM-6 °FClear.6 mph70%30.16 "Hg15 mi
12:00 AM-4 °FClear.6 mph71%30.17 "Hg15 mi
11:00 PM
Thu, Feb 11
-4 °FClear.5 mph71%30.16 "Hg15 mi
10:00 PM-4 °FClear.6 mph71%30.16 "Hg15 mi
9:00 PM-4 °FClear.7 mph71%30.14 "Hg15 mi
8:00 PM0 °FClear.9 mph65%30.12 "Hg15 mi
7:00 PM1 °FPassing clouds.12 mph60%30.11 "Hg15 mi
6:00 PM1 °FLight snow. Partly cloudy.17 mph65%30.08 "Hg15 mi
5:00 PM1 °FLight snow. Broken clouds.17 mph65%30.05 "Hg10 mi
4:00 PM1 °FLight snow. Partly sunny.13 mph65%30.02 "Hg15 mi
3:00 PM0 °FLight snow. Broken clouds.20 mph60%29.99 "Hg10 mi
2:00 PM0 °FLight snow. Mostly cloudy.15 mph65%29.98 "Hg10 mi
1:00 PM1 °FPartly sunny.17 mph60%29.96 "Hg15 mi
12:00 PM1 °FScattered clouds.14 mph60%29.94 "Hg15 mi
11:00 AM0 °FScattered clouds.18 mph65%29.93 "Hg10 mi
10:00 AM0 °FLight snow. Mostly cloudy.14 mph71%29.90 "Hg4 mi
Weather by CustomWeather, © 2016

See weather overviewHow to use our weather pages